,,,PA_Meas_PMT16A,,PR_Meas_QMR101_102,,RH_Meas_QMH101,,SR_Meas_QMS101,,TA_Meas_QMH101,,GenWind,,GenWind,
date,time,status,PA,status,PR,status,RH,status,SR,status,TA,status,DirAvg,status,SpdAvg,
2011-02-07, 00:00:04,VALID,1008.69,VALID,0,VALID,102.04,VALID,0,VALID,23.4212,VALID,297,VALID,0.682813,
2011-02-07, 00:01:04,VALID,1008.71,VALID,0,VALID,102.04,VALID,0,VALID,23.4407,VALID,333,VALID,0.522266,
2011-02-07, 00:02:04,VALID,1008.68,VALID,0,VALID,101.972,VALID,0,VALID,23.4425,VALID,329,VALID,0.380469,
2011-02-07, 00:03:04,VALID,1008.67,VALID,0,VALID,102.002,VALID,0,VALID,23.4407,VALID,311,VALID,0.366016,
2011-02-07, 00:04:04,VALID,1008.65,VALID,0,VALID,101.964,VALID,0,VALID,23.4407,VALID,305,VALID,0.792969,
2011-02-07, 00:05:04,VALID,1008.63,VALID,0,VALID,101.949,VALID,0,VALID,23.4407,VALID,276,VALID,0,
2011-02-07, 00:06:04,VALID,1008.64,VALID,0,VALID,101.872,VALID,0,VALID,23.4407,VALID,276,VALID,0.148828,
2011-02-07, 00:07:04,VALID,1008.62,VALID,0,VALID,101.857,VALID,0,VALID,23.4212,VALID,298,VALID,0.301953,
2011-02-07, 00:08:04,VALID,1008.6,VALID,0,VALID,101.865,VALID,0,VALID,23.4407,VALID,317,VALID,0.490234,
2011-02-07, 00:09:04,VALID,1008.57,VALID,0,VALID,101.827,VALID,0,VALID,23.4602,VALID,297,VALID,0.477734,
2011-02-07, 00:10:04,VALID,1008.59,VALID,0,VALID,101.728,VALID,0,VALID,23.4602,VALID,282,VALID,0.500391,
2011-02-07, 00:11:04,VALID,1008.58,VALID,0,VALID,101.628,VALID,0,VALID,23.4407,VALID,286,VALID,0.324219,
2011-02-07, 00:12:04,VALID,1008.57,VALID,0,VALID,101.659,VALID,0,VALID,23.4407,VALID,306,VALID,0.646094,
2011-02-07, 00:13:04,VALID,1008.54,VALID,0,VALID,101.689,VALID,0,VALID,23.4407,VALID,317,VALID,0.0746094,
2011-02-07, 00:14:04,VALID,1008.58,VALID,0,VALID,101.72,VALID,0,VALID,23.4194,VALID,313,VALID,0.211719,
2011-02-07, 00:15:04,VALID,1008.55,VALID,0,VALID,101.689,VALID,0,VALID,23.4212,VALID,313,VALID,0,
2011-02-07, 00:16:04,VALID,1008.56,VALID,0,VALID,101.75,VALID,0,VALID,23.4017,VALID,313,VALID,0.0253906,
2011-02-07, 00:17:04,VALID,1008.55,VALID,0,VALID,101.827,VALID,0,VALID,23.3823,VALID,318,VALID,0.0238281,
2011-02-07, 00:18:04,VALID,1008.55,VALID,0,VALID,101.911,VALID,0,VALID,23.4017,VALID,283,VALID,0.730859,
2011-02-07, 00:19:04,VALID,1008.52,VALID,0,VALID,101.933,VALID,0,VALID,23.4212,VALID,286,VALID,0.720312,
2011-02-07, 00:20:04,VALID,1008.52,VALID,0,VALID,101.857,VALID,0,VALID,23.4407,VALID,286,VALID,0.301562,
2011-02-07, 00:21:04,VALID,1008.49,VALID,0,VALID,101.758,VALID,0.105969,VALID,23.4584,VALID,289,VALID,0.191797,
2011-02-07, 00:22:04,VALID,1008.47,VALID,0,VALID,101.682,VALID,0,VALID,23.4797,VALID,268,VALID,0.0945313,
2011-02-07, 00:23:04,VALID,1008.44,VALID,0,VALID,101.613,VALID,0,VALID,23.4797,VALID,291,VALID,0.364844,
2011-02-07, 00:24:04,VALID,1008.42,VALID,0,VALID,101.56,VALID,0,VALID,23.4584,VALID,288,VALID,0.396094,
2011-02-07, 00:25:04,VALID,1008.43,VALID,0,VALID,101.522,VALID,0,VALID,23.4797,VALID,285,VALID,0.158594,
2011-02-07, 00:26:04,VALID,1008.4,VALID,0,VALID,101.506,VALID,0,VALID,23.4992,VALID,273,VALID,0.152344,
2011-02-07, 00:27:04,VALID,1008.42,VALID,0,VALID,101.506,VALID,0,VALID,23.4797,VALID,285,VALID,0.582422,
2011-02-07, 00:28:04,VALID,1008.43,VALID,0,VALID,101.43,VALID,0,VALID,23.4992,VALID,283,VALID,1.19102,
2011-02-07, 00:29:04,VALID,1008.42,VALID,0,VALID,101.354,VALID,0,VALID,23.5186,VALID,309,VALID,0.445313,
2011-02-07, 00:30:04,VALID,1008.44,VALID,0,VALID,101.262,VALID,0,VALID,23.5186,VALID,287,VALID,0.239453,
2011-02-07, 00:31:04,VALID,1008.4,VALID,0,VALID,101.194,VALID,0,VALID,23.5186,VALID,278,VALID,1.10352,
2011-02-07, 00:32:04,VALID,1008.45,VALID,0,VALID,101.11,VALID,0,VALID,23.5381,VALID,278,VALID,1.01758,
2011-02-07, 00:33:04,VALID,1008.43,VALID,0,VALID,101.056,VALID,0,VALID,23.5363,VALID,275,VALID,1.11016,
2011-02-07, 00:34:04,VALID,1008.42,VALID,0,VALID,100.965,VALID,0,VALID,23.5576,VALID,255,VALID,0.716797,
2011-02-07, 00:35:04,VALID,1008.42,VALID,0,VALID,100.896,VALID,0,VALID,23.5576,VALID,282,VALID,0.247266,
2011-02-07, 00:36:04,VALID,1008.42,VALID,0,VALID,100.873,VALID,0,VALID,23.5576,VALID,311,VALID,0.435937,
2011-02-07, 00:37:04,VALID,1008.42,VALID,0,VALID,100.896,VALID,0,VALID,23.5576,VALID,281,VALID,0.452734,
2011-02-07, 00:38:04,VALID,1008.42,VALID,0,VALID,100.889,VALID,0,VALID,23.5381,VALID,316,VALID,0.699609,
2011-02-07, 00:39:04,VALID,1008.45,VALID,0,VALID,100.866,VALID,0,VALID,23.5363,VALID,276,VALID,0.326172,
2011-02-07, 00:40:04,VALID,1008.41,VALID,0,VALID,100.843,VALID,0,VALID,23.5381,VALID,276,VALID,0.107031,
2011-02-07, 00:41:04,VALID,1008.38,VALID,0,VALID,100.866,VALID,0,VALID,23.5381,VALID,276,VALID,0,
2011-02-07, 00:42:04,VALID,1008.41,VALID,0,VALID,100.881,VALID,0,VALID,23.5169,VALID,274,VALID,0.321094,
2011-02-07, 00:43:04,VALID,1008.38,VALID,0,VALID,100.873,VALID,0,VALID,23.5381,VALID,274,VALID,0.455469,
2011-02-07, 00:44:04,VALID,1008.36,VALID,0,VALID,100.873,VALID,0,VALID,23.5381,VALID,307,VALID,0.121094,
2011-02-07, 00:45:04,VALID,1008.36,VALID,0,VALID,100.866,VALID,0.105969,VALID,23.5186,VALID,307,VALID,0.0414063,
2011-02-07, 00:46:04,VALID,1008.34,VALID,0,VALID,100.858,VALID,0,VALID,23.5186,VALID,307,VALID,0.435547,
2011-02-07, 00:47:04,VALID,1008.32,VALID,0,VALID,100.843,VALID,0,VALID,23.5186,VALID,273,VALID,0.405469,
2011-02-07, 00:48:04,VALID,1008.27,VALID,0,VALID,100.82,VALID,0,VALID,23.5186,VALID,313,VALID,0.779297,
2011-02-07, 00:49:04,VALID,1008.32,VALID,0,VALID,100.759,VALID,0,VALID,23.5381,VALID,317,VALID,0.0730469,
2011-02-07, 00:50:04,VALID,1008.3,VALID,0,VALID,100.736,VALID,0,VALID,23.5381,VALID,313,VALID,0.663672,
2011-02-07, 00:51:04,VALID,1008.3,VALID,0,VALID,100.736,VALID,0,VALID,23.5381,VALID,284,VALID,0.383594,
2011-02-07, 00:52:04,VALID,1008.28,VALID,0,VALID,100.721,VALID,0,VALID,23.4974,VALID,284,VALID,0,
2011-02-07, 00:53:04,VALID,1008.3,VALID,0,VALID,100.759,VALID,0,VALID,23.4797,VALID,284,VALID,0,
2011-02-07, 00:54:04,VALID,1008.29,VALID,0,VALID,100.904,VALID,0,VALID,23.4407,VALID,284,VALID,0.0105469,
2011-02-07, 00:55:04,VALID,1008.28,VALID,0,VALID,101.034,VALID,0,VALID,23.4194,VALID,284,VALID,0,
2011-02-07, 00:56:04,VALID,1008.28,VALID,0,VALID,101.148,VALID,0,VALID,23.4212,VALID,284,VALID,0,
2011-02-07, 00:57:04,VALID,1008.27,VALID,0,VALID,101.209,VALID,0,VALID,23.4017,VALID,295,VALID,0,
2011-02-07, 00:58:04,VALID,1008.27,VALID,0,VALID,101.346,VALID,0,VALID,23.3823,VALID,294,VALID,0.662891,
2011-02-07, 00:59:04,VALID,1008.27,VALID,0,VALID,101.407,VALID,0,VALID,23.3823,VALID,288,VALID,0.466797,
2011-02-07, 01:00:04,VALID,1008.27,VALID,0,VALID,101.423,VALID,0,VALID,23.3805,VALID,288,VALID,0.000390625,
2011-02-07, 01:01:04,VALID,1008.26,VALID,0,VALID,101.43,VALID,0,VALID,23.3823,VALID,288,VALID,0,
2011-02-07, 01:02:04,VALID,1008.25,VALID,0,VALID,101.468,VALID,0,VALID,23.3628,VALID,288,VALID,0,
2011-02-07, 01:03:04,VALID,1008.24,VALID,0,VALID,101.499,VALID,0,VALID,23.3238,VALID,288,VALID,0.312109,
2011-02-07, 01:04:04,VALID,1008.24,VALID,0,VALID,101.575,VALID,0,VALID,23.3238,VALID,288,VALID,0.132031,
2011-02-07, 01:05:04,VALID,1008.25,VALID,0,VALID,101.651,VALID,0,VALID,23.3043,VALID,288,VALID,0.0984375,
2011-02-07, 01:06:04,VALID,1008.24,VALID,0,VALID,101.75,VALID,0,VALID,23.2636,VALID,288,VALID,0.0746094,
2011-02-07, 01:07:04,VALID,1008.27,VALID,0,VALID,101.85,VALID,0,VALID,23.2654,VALID,309,VALID,0.464453,
2011-02-07, 01:08:04,VALID,1008.28,VALID,0,VALID,101.911,VALID,0,VALID,23.2848,VALID,295,VALID,0.448047,
2011-02-07, 01:09:04,VALID,1008.29,VALID,0,VALID,101.88,VALID,0,VALID,23.2831,VALID,295,VALID,0,
2011-02-07, 01:10:04,VALID,1008.31,VALID,0,VALID,101.834,VALID,0,VALID,23.3043,VALID,295,VALID,0,
2011-02-07, 01:11:04,VALID,1008.3,VALID,0,VALID,101.811,VALID,0,VALID,23.2636,VALID,298,VALID,0.344141,
2011-02-07, 01:12:04,VALID,1008.28,VALID,0,VALID,101.834,VALID,0,VALID,23.2654,VALID,298,VALID,0.119141,
2011-02-07, 01:13:04,VALID,1008.26,VALID,0,VALID,101.872,VALID,0,VALID,23.2654,VALID,290,VALID,0.673828,
2011-02-07, 01:14:04,VALID,1008.27,VALID,0,VALID,101.918,VALID,0,VALID,23.2848,VALID,282,VALID,0.203906,
2011-02-07, 01:15:04,VALID,1008.25,VALID,0,VALID,101.911,VALID,0,VALID,23.2459,VALID,299,VALID,0.441016,
2011-02-07, 01:16:04,VALID,1008.24,VALID,0,VALID,101.888,VALID,0,VALID,23.2654,VALID,302,VALID,0.291797,
2011-02-07, 01:17:04,VALID,1008.25,VALID,0,VALID,101.911,VALID,0,VALID,23.2654,VALID,331,VALID,0.365625,
2011-02-07, 01:18:04,VALID,1008.23,VALID,0,VALID,101.964,VALID,0,VALID,23.2654,VALID,292,VALID,0.779297,
2011-02-07, 01:19:04,VALID,1008.24,VALID,0,VALID,101.911,VALID,0,VALID,23.2831,VALID,320,VALID,0.635938,
2011-02-07, 01:20:04,VALID,1008.24,VALID,0,VALID,101.75,VALID,0,VALID,23.3026,VALID,320,VALID,0.111719,
2011-02-07, 01:21:04,VALID,1008.26,VALID,0,VALID,101.659,VALID,0,VALID,23.3433,VALID,278,VALID,0.4125,
2011-02-07, 01:22:04,VALID,1008.23,VALID,0,VALID,101.545,VALID,0,VALID,23.3433,VALID,312,VALID,1.01641,
2011-02-07, 01:23:04,VALID,1008.25,VALID,0,VALID,101.491,VALID,0,VALID,23.3433,VALID,319,VALID,0.800781,
2011-02-07, 01:24:04,VALID,1008.23,VALID,0,VALID,101.339,VALID,0,VALID,23.4017,VALID,283,VALID,0.455078,
2011-02-07, 01:25:04,VALID,1008.23,VALID,0,VALID,101.224,VALID,0,VALID,23.4017,VALID,284,VALID,0.491016,
2011-02-07, 01:26:04,VALID,1008.21,VALID,0,VALID,101.171,VALID,0,VALID,23.4017,VALID,318,VALID,1.06758,
2011-02-07, 01:27:04,VALID,1008.25,VALID,0,VALID,101.156,VALID,0,VALID,23.4017,VALID,298,VALID,0.589063,
2011-02-07, 01:28:04,VALID,1008.22,VALID,0,VALID,101.034,VALID,0,VALID,23.4212,VALID,339,VALID,0.452734,
2011-02-07, 01:29:04,VALID,1008.24,VALID,0,VALID,100.965,VALID,0.105969,VALID,23.3982,VALID,317,VALID,0.866797,
2011-02-07, 01:30:04,VALID,1008.27,VALID,0,VALID,100.957,VALID,0.105969,VALID,23.4194,VALID,304,VALID,0.605859,
2011-02-07, 01:31:04,VALID,1008.24,VALID,0,VALID,100.904,VALID,0.105969,VALID,23.4389,VALID,329,VALID,0.523828,
2011-02-07, 01:32:04,VALID,1008.27,VALID,0,VALID,100.896,VALID,0.105969,VALID,23.4389,VALID,339,VALID,0.0292969,
2011-02-07, 01:33:04,VALID,1008.24,VALID,0,VALID,100.904,VALID,0.105969,VALID,23.4,VALID,339,VALID,0.176953,
2011-02-07, 01:34:04,VALID,1008.23,VALID,0,VALID,100.988,VALID,0.105969,VALID,23.3805,VALID,302,VALID,0.745313,
2011-02-07, 01:35:04,VALID,1008.24,VALID,0,VALID,101.072,VALID,0.105969,VALID,23.3415,VALID,303,VALID,0.381641,
2011-02-07, 01:36:04,VALID,1008.23,VALID,0,VALID,101.117,VALID,0.211938,VALID,23.3008,VALID,303,VALID,0.345313,
2011-02-07, 01:37:04,VALID,1008.21,VALID,0,VALID,101.171,VALID,0.211938,VALID,23.322,VALID,34,VALID,0.308203,
2011-02-07, 01:38:04,VALID,1008.21,VALID,0,VALID,101.27,VALID,0.105969,VALID,23.2831,VALID,325,VALID,0.788281,
2011-02-07, 01:39:04,VALID,1008.23,VALID,0,VALID,101.301,VALID,0.105969,VALID,23.2831,VALID,307,VALID,0.0121094,
2011-02-07, 01:40:04,VALID,1008.24,VALID,0,VALID,101.293,VALID,0.105969,VALID,23.2831,VALID,307,VALID,0.308594,
2011-02-07, 01:41:04,VALID,1008.23,VALID,0,VALID,101.369,VALID,0.105969,VALID,23.2636,VALID,344,VALID,0.427344,
2011-02-07, 01:42:04,VALID,1008.22,VALID,0,VALID,101.423,VALID,0.105969,VALID,23.2441,VALID,344,VALID,0.0980469,
2011-02-07, 01:43:04,VALID,1008.25,VALID,0,VALID,101.445,VALID,0.105969,VALID,23.2441,VALID,336,VALID,0.407031,
2011-02-07, 01:44:04,VALID,1008.26,VALID,0,VALID,101.484,VALID,0,VALID,23.2264,VALID,336,VALID,0.533984,
2011-02-07, 01:45:04,VALID,1008.26,VALID,0,VALID,101.43,VALID,0,VALID,23.2264,VALID,336,VALID,0.260547,
2011-02-07, 01:46:04,VALID,1008.28,VALID,0,VALID,101.453,VALID,0,VALID,23.2069,VALID,336,VALID,0.0121094,
2011-02-07, 01:47:04,VALID,1008.27,VALID,0,VALID,101.537,VALID,0,VALID,23.1874,VALID,336,VALID,0.0515625,
2011-02-07, 01:48:04,VALID,1008.28,VALID,0,VALID,101.651,VALID,0,VALID,23.1485,VALID,335,VALID,0.015625,
2011-02-07, 01:49:04,VALID,1008.28,VALID,0,VALID,101.781,VALID,0,VALID,23.1485,VALID,289,VALID,0.242188,
2011-02-07, 01:50:04,VALID,1008.29,VALID,0,VALID,101.842,VALID,0,VALID,23.1485,VALID,289,VALID,0.172656,
2011-02-07, 01:51:04,VALID,1008.27,VALID,0,VALID,101.911,VALID,0,VALID,23.1095,VALID,292,VALID,0.0429688,
2011-02-07, 01:52:04,VALID,1008.27,VALID,0,VALID,101.972,VALID,0,VALID,23.1095,VALID,292,VALID,0.262891,
2011-02-07, 01:53:04,VALID,1008.26,VALID,0,VALID,101.994,VALID,0,VALID,23.09,VALID,237,VALID,0.260156,
2011-02-07, 01:54:04,VALID,1008.26,VALID,0,VALID,102.04,VALID,0,VALID,23.0705,VALID,237,VALID,0.319141,
2011-02-07, 01:55:04,VALID,1008.26,VALID,0,VALID,102.086,VALID,0,VALID,23.0688,VALID,293,VALID,0.467969,
2011-02-07, 01:56:04,VALID,1008.29,VALID,0,VALID,102.101,VALID,0,VALID,23.0493,VALID,295,VALID,0.249609,
2011-02-07, 01:57:04,VALID,1008.28,VALID,0,VALID,102.139,VALID,0,VALID,23.0705,VALID,331,VALID,0.357812,
2011-02-07, 01:58:04,VALID,1008.3,VALID,0,VALID,102.17,VALID,0,VALID,23.0511,VALID,331,VALID,0.360156,
2011-02-07, 01:59:04,VALID,1008.29,VALID,0,VALID,102.216,VALID,0,VALID,23.0316,VALID,331,VALID,0.326562,
2011-02-07, 02:00:04,VALID,1008.3,VALID,0,VALID,102.231,VALID,0,VALID,23.0316,VALID,331,VALID,0.217187,
2011-02-07, 02:01:04,VALID,1008.3,VALID,0,VALID,102.231,VALID,0,VALID,23.0121,VALID,331,VALID,0.138672,
2011-02-07, 02:02:04,VALID,1008.27,VALID,0,VALID,102.2,VALID,0,VALID,23.0121,VALID,331,VALID,0,
2011-02-07, 02:03:04,VALID,1008.26,VALID,0,VALID,102.185,VALID,0,VALID,22.9731,VALID,331,VALID,0.272656,
2011-02-07, 02:04:04,VALID,1008.25,VALID,0,VALID,102.261,VALID,0,VALID,22.9536,VALID,329,VALID,0.355469,
2011-02-07, 02:05:04,VALID,1008.24,VALID,0,VALID,102.36,VALID,0,VALID,22.9536,VALID,322,VALID,0.0503906,
2011-02-07, 02:06:04,VALID,1008.24,VALID,0,VALID,102.383,VALID,0,VALID,22.9342,VALID,323,VALID,0.278906,
2011-02-07, 02:07:04,VALID,1008.22,VALID,0,VALID,102.399,VALID,0,VALID,22.9147,VALID,336,VALID,0.00585938,
2011-02-07, 02:08:04,VALID,1008.23,VALID,0,VALID,102.437,VALID,0,VALID,22.9147,VALID,336,VALID,0,
2011-02-07, 02:09:04,VALID,1008.21,VALID,0,VALID,102.452,VALID,0,VALID,22.8757,VALID,336,VALID,0,
2011-02-07, 02:10:04,VALID,1008.22,VALID,0,VALID,102.498,VALID,0,VALID,22.8562,VALID,336,VALID,0,
2011-02-07, 02:11:04,VALID,1008.22,VALID,0,VALID,102.62,VALID,0,VALID,22.8562,VALID,357,VALID,0.201172,
2011-02-07, 02:12:04,VALID,1008.19,VALID,0,VALID,102.696,VALID,0,VALID,22.8775,VALID,360,VALID,0.359375,
2011-02-07, 02:13:04,VALID,1008.16,VALID,0,VALID,102.742,VALID,0,VALID,22.8562,VALID,360,VALID,0.475,
2011-02-07, 02:14:04,VALID,1008.19,VALID,0,VALID,102.788,VALID,0,VALID,22.8562,VALID,360,VALID,0.34375,
2011-02-07, 02:15:04,VALID,1008.18,VALID,0,VALID,102.742,VALID,0,VALID,22.8562,VALID,360,VALID,0.00195313,
2011-02-07, 02:16:04,VALID,1008.14,VALID,0,VALID,102.749,VALID,0,VALID,22.8757,VALID,360,VALID,0.199219,
2011-02-07, 02:17:04,VALID,1008.13,VALID,0,VALID,102.666,VALID,0,VALID,22.8562,VALID,360,VALID,0,
2011-02-07, 02:18:04,VALID,1008.12,VALID,0,VALID,102.643,VALID,0,VALID,22.8775,VALID,327,VALID,0.374609,
2011-02-07, 02:19:04,VALID,1008.09,VALID,0,VALID,102.681,VALID,0,VALID,22.8562,VALID,317,VALID,0.333594,
2011-02-07, 02:20:04,VALID,1008.08,VALID,0,VALID,102.666,VALID,0,VALID,22.8757,VALID,317,VALID,0.242969,
2011-02-07, 02:21:04,VALID,1008.07,VALID,0,VALID,102.635,VALID,0,VALID,22.8757,VALID,317,VALID,0.144922,
2011-02-07, 02:22:04,VALID,1008.07,VALID,0,VALID,102.589,VALID,0,VALID,22.8562,VALID,317,VALID,0.1125,
2011-02-07, 02:23:04,VALID,1008.05,VALID,0,VALID,102.643,VALID,0,VALID,22.8562,VALID,343,VALID,0.790625,
2011-02-07, 02:24:04,VALID,1008.03,VALID,0,VALID,102.696,VALID,0,VALID,22.8562,VALID,341,VALID,0.407422,
2011-02-07, 02:25:04,VALID,1008.02,VALID,0,VALID,102.696,VALID,0,VALID,22.8562,VALID,341,VALID,0.0976563,
2011-02-07, 02:26:04,VALID,1008.02,VALID,0,VALID,102.635,VALID,0,VALID,22.8368,VALID,341,VALID,0.0746094,
2011-02-07, 02:27:04,VALID,1007.98,VALID,0,VALID,102.605,VALID,0,VALID,22.8173,VALID,341,VALID,0.169531,
2011-02-07, 02:28:04,VALID,1007.95,VALID,0,VALID,102.65,VALID,0,VALID,22.8173,VALID,341,VALID,0.403516,
2011-02-07, 02:29:04,VALID,1007.95,VALID,0,VALID,102.673,VALID,0,VALID,22.8173,VALID,343,VALID,0.346484,
2011-02-07, 02:30:04,VALID,1007.93,VALID,0,VALID,102.688,VALID,0,VALID,22.7766,VALID,357,VALID,0.0222656,
2011-02-07, 02:31:04,VALID,1007.91,VALID,0,VALID,102.658,VALID,0,VALID,22.7783,VALID,357,VALID,0,
2011-02-07, 02:32:04,VALID,1007.9,VALID,0,VALID,102.688,VALID,0,VALID,22.7588,VALID,357,VALID,0,
2011-02-07, 02:33:04,VALID,1007.89,VALID,0,VALID,102.765,VALID,0,VALID,22.7394,VALID,357,VALID,0.265625,
2011-02-07, 02:34:04,VALID,1007.89,VALID,0,VALID,102.803,VALID,0,VALID,22.7199,VALID,357,VALID,0.234766,
2011-02-07, 02:35:04,VALID,1007.9,VALID,0,VALID,102.864,VALID,0,VALID,22.7199,VALID,357,VALID,0,
2011-02-07, 02:36:04,VALID,1007.92,VALID,0,VALID,102.91,VALID,0,VALID,22.7004,VALID,357,VALID,0,
2011-02-07, 02:37:04,VALID,1007.93,VALID,0,VALID,102.963,VALID,0,VALID,22.6809,VALID,357,VALID,0,
2011-02-07, 02:38:04,VALID,1007.9,VALID,0,VALID,103.047,VALID,0,VALID,22.6809,VALID,353,VALID,0.652344,
2011-02-07, 02:39:04,VALID,1007.92,VALID,0,VALID,103.07,VALID,0,VALID,22.6809,VALID,354,VALID,0.33125,
2011-02-07, 02:40:04,VALID,1007.91,VALID,0,VALID,103.062,VALID,0,VALID,22.6809,VALID,5,VALID,0.546875,
2011-02-07, 02:41:04,VALID,1007.88,VALID,0,VALID,103.047,VALID,0,VALID,22.6597,VALID,6,VALID,0.332422,
2011-02-07, 02:42:04,VALID,1007.86,VALID,0,VALID,103.047,VALID,0,VALID,22.6614,VALID,6,VALID,0.352734,
2011-02-07, 02:43:04,VALID,1007.86,VALID,0,VALID,103.054,VALID,0,VALID,22.6614,VALID,6,VALID,0.0238281,
2011-02-07, 02:44:04,VALID,1007.86,VALID,0,VALID,103.077,VALID,0.105969,VALID,22.6402,VALID,6,VALID,0,
2011-02-07, 02:45:04,VALID,1007.87,VALID,0,VALID,103.077,VALID,0,VALID,22.6402,VALID,6,VALID,0,
2011-02-07, 02:46:04,VALID,1007.84,VALID,0,VALID,103.07,VALID,0.105969,VALID,22.6208,VALID,6,VALID,0.160156,
2011-02-07, 02:47:04,VALID,1007.87,VALID,0,VALID,103.138,VALID,0,VALID,22.6208,VALID,352,VALID,0.441016,
2011-02-07, 02:48:04,VALID,1007.88,VALID,0,VALID,103.176,VALID,0.105969,VALID,22.6208,VALID,336,VALID,0.554688,
2011-02-07, 02:49:04,VALID,1007.88,VALID,0,VALID,103.161,VALID,0.105969,VALID,22.6402,VALID,336,VALID,0,
2011-02-07, 02:50:04,VALID,1007.92,VALID,0,VALID,103.176,VALID,0.105969,VALID,22.6809,VALID,7,VALID,0.653125,
2011-02-07, 02:51:04,VALID,1007.91,VALID,0,VALID,103.154,VALID,0.105969,VALID,22.6792,VALID,327,VALID,0.882031,
2011-02-07, 02:52:04,VALID,1007.88,VALID,0,VALID,103.115,VALID,0.105969,VALID,22.7199,VALID,320,VALID,0.280859,
2011-02-07, 02:53:04,VALID,1007.9,VALID,0,VALID,103.062,VALID,0.105969,VALID,22.7182,VALID,320,VALID,0.0453125,
2011-02-07, 02:54:04,VALID,1007.91,VALID,0,VALID,103.016,VALID,0.105969,VALID,22.7783,VALID,320,VALID,0.09375,
2011-02-07, 02:55:04,VALID,1007.9,VALID,0,VALID,102.948,VALID,0,VALID,22.7571,VALID,320,VALID,0.353125,
2011-02-07, 02:56:04,VALID,1007.92,VALID,0,VALID,102.841,VALID,0.105969,VALID,22.7783,VALID,341,VALID,0.388281,
2011-02-07, 02:57:04,VALID,1007.91,VALID,0,VALID,102.772,VALID,0,VALID,22.7571,VALID,341,VALID,0.279687,
2011-02-07, 02:58:04,VALID,1007.91,VALID,0,VALID,102.681,VALID,0.105969,VALID,22.7571,VALID,341,VALID,0.296484,
2011-02-07, 02:59:04,VALID,1007.91,VALID,0,VALID,102.673,VALID,0,VALID,22.7199,VALID,341,VALID,0.127734,
2011-02-07, 03:00:04,VALID,1007.89,VALID,0,VALID,102.635,VALID,0,VALID,22.7004,VALID,341,VALID,0,
2011-02-07, 03:01:04,VALID,1007.89,VALID,0,VALID,102.643,VALID,0,VALID,22.7004,VALID,341,VALID,0,
2011-02-07, 03:02:04,VALID,1007.88,VALID,0,VALID,102.643,VALID,0,VALID,22.6809,VALID,341,VALID,0,
2011-02-07, 03:03:04,VALID,1007.86,VALID,0,VALID,102.681,VALID,0,VALID,22.6614,VALID,341,VALID,0.120703,
2011-02-07, 03:04:04,VALID,1007.86,VALID,0,VALID,102.749,VALID,0,VALID,22.642,VALID,341,VALID,0,
2011-02-07, 03:05:04,VALID,1007.86,VALID,0,VALID,102.818,VALID,0,VALID,22.642,VALID,341,VALID,0.208594,
2011-02-07, 03:06:04,VALID,1007.86,VALID,0,VALID,102.91,VALID,0,VALID,22.642,VALID,341,VALID,0,
2011-02-07, 03:07:04,VALID,1007.88,VALID,0,VALID,102.925,VALID,0,VALID,22.6225,VALID,341,VALID,0,
2011-02-07, 03:08:04,VALID,1007.85,VALID,0,VALID,102.963,VALID,0,VALID,22.6225,VALID,341,VALID,0,
2011-02-07, 03:09:04,VALID,1007.82,VALID,0,VALID,102.986,VALID,0,VALID,22.6225,VALID,341,VALID,0,
2011-02-07, 03:10:04,VALID,1007.8,VALID,0,VALID,102.978,VALID,0,VALID,22.6225,VALID,341,VALID,0,
2011-02-07, 03:11:04,VALID,1007.81,VALID,0,VALID,103.009,VALID,0,VALID,22.603,VALID,341,VALID,0,
2011-02-07, 03:12:04,VALID,1007.8,VALID,0,VALID,103.047,VALID,0,VALID,22.5835,VALID,341,VALID,0,
2011-02-07, 03:13:04,VALID,1007.78,VALID,0,VALID,103.077,VALID,0,VALID,22.564,VALID,341,VALID,0,
2011-02-07, 03:14:04,VALID,1007.77,VALID,0,VALID,103.1,VALID,0,VALID,22.564,VALID,341,VALID,0,
2011-02-07, 03:15:04,VALID,1007.77,VALID,0,VALID,103.108,VALID,0,VALID,22.564,VALID,341,VALID,0.00195313,
2011-02-07, 03:16:04,VALID,1007.8,VALID,0,VALID,103.154,VALID,0,VALID,22.5852,VALID,341,VALID,0.0394531,
2011-02-07, 03:17:04,VALID,1007.8,VALID,0,VALID,103.176,VALID,0,VALID,22.564,VALID,341,VALID,0,
2011-02-07, 03:18:04,VALID,1007.77,VALID,0,VALID,103.199,VALID,0,VALID,22.564,VALID,341,VALID,0,
2011-02-07, 03:19:04,VALID,1007.82,VALID,0,VALID,103.23,VALID,0,VALID,22.564,VALID,341,VALID,0.0226563,
2011-02-07, 03:20:04,VALID,1007.78,VALID,0,VALID,103.237,VALID,0,VALID,22.564,VALID,341,VALID,0.579297,
2011-02-07, 03:21:04,VALID,1007.77,VALID,0,VALID,103.245,VALID,0,VALID,22.564,VALID,341,VALID,0.240234,
2011-02-07, 03:22:04,VALID,1007.73,VALID,0,VALID,103.207,VALID,0,VALID,22.5835,VALID,341,VALID,0.296484,
2011-02-07, 03:23:04,VALID,1007.73,VALID,0,VALID,103.199,VALID,0,VALID,22.564,VALID,351,VALID,0.307422,
2011-02-07, 03:24:04,VALID,1007.75,VALID,0,VALID,103.154,VALID,0,VALID,22.564,VALID,351,VALID,0.135547,
2011-02-07, 03:25:04,VALID,1007.77,VALID,0,VALID,103.138,VALID,0,VALID,22.564,VALID,351,VALID,0,
2011-02-07, 03:26:04,VALID,1007.79,VALID,0,VALID,103.085,VALID,0,VALID,22.5446,VALID,351,VALID,0,
2011-02-07, 03:27:04,VALID,1007.81,VALID,0,VALID,103.062,VALID,0,VALID,22.5463,VALID,351,VALID,0,
2011-02-07, 03:28:04,VALID,1007.77,VALID,0,VALID,103.093,VALID,0,VALID,22.5268,VALID,351,VALID,0,
2011-02-07, 03:29:04,VALID,1007.79,VALID,0,VALID,103.131,VALID,0.105969,VALID,22.4861,VALID,351,VALID,0,
2011-02-07, 03:30:04,VALID,1007.77,VALID,0,VALID,103.161,VALID,0.105969,VALID,22.465,VALID,351,VALID,0,
2011-02-07, 03:31:04,VALID,1007.74,VALID,0,VALID,103.215,VALID,0,VALID,22.4667,VALID,351,VALID,0,
2011-02-07, 03:32:04,VALID,1007.73,VALID,0,VALID,103.26,VALID,0,VALID,22.426,VALID,351,VALID,0,
2011-02-07, 03:33:04,VALID,1007.71,VALID,0,VALID,103.283,VALID,0.105969,VALID,22.4065,VALID,351,VALID,0,
2011-02-07, 03:34:04,VALID,1007.7,VALID,0,VALID,103.329,VALID,0,VALID,22.3676,VALID,351,VALID,0,
2011-02-07, 03:35:04,VALID,1007.7,VALID,0,VALID,103.359,VALID,0,VALID,22.3887,VALID,351,VALID,0,
2011-02-07, 03:36:04,VALID,1007.69,VALID,0,VALID,103.382,VALID,0.105969,VALID,22.3481,VALID,351,VALID,0,
2011-02-07, 03:37:04,VALID,1007.67,VALID,0,VALID,103.451,VALID,0.105969,VALID,22.3693,VALID,351,VALID,0,
2011-02-07, 03:38:04,VALID,1007.71,VALID,0,VALID,103.481,VALID,0,VALID,22.3286,VALID,351,VALID,0,
2011-02-07, 03:39:04,VALID,1007.72,VALID,0,VALID,103.504,VALID,0,VALID,22.3498,VALID,351,VALID,0,
2011-02-07, 03:40:04,VALID,1007.73,VALID,0,VALID,103.527,VALID,0,VALID,22.3303,VALID,351,VALID,0,
2011-02-07, 03:41:04,VALID,1007.73,VALID,0,VALID,103.565,VALID,0.105969,VALID,22.3091,VALID,351,VALID,0,
2011-02-07, 03:42:04,VALID,1007.75,VALID,0,VALID,103.558,VALID,0,VALID,22.3108,VALID,351,VALID,0,
2011-02-07, 03:43:04,VALID,1007.77,VALID,0,VALID,103.588,VALID,0.105969,VALID,22.2702,VALID,351,VALID,0,
2011-02-07, 03:44:04,VALID,1007.74,VALID,0,VALID,103.626,VALID,0,VALID,22.2719,VALID,351,VALID,0,
2011-02-07, 03:45:04,VALID,1007.75,VALID,0,VALID,103.642,VALID,0,VALID,22.2507,VALID,351,VALID,0,
2011-02-07, 03:46:04,VALID,1007.76,VALID,0,VALID,103.672,VALID,0,VALID,22.2507,VALID,351,VALID,0,